TimeMDT,TemperatureF,Dew PointF,Humidity,Sea Level PressureIn,VisibilityMPH,Wind Direction,Wind SpeedMPH,Gust SpeedMPH,PrecipitationIn,Events,Conditions,WindDirDegrees,DateUTC
12:53 AM,44.1,35.1,71,29.96,10.0,West,9.2,-,N/A,,Clear,270,2013-03-30 06:53:00
1:53 AM,46.0,35.1,66,29.96,10.0,WNW,13.8,-,N/A,,Clear,290,2013-03-30 07:53:00
2:53 AM,45.0,35.1,68,29.95,10.0,WNW,12.7,-,N/A,,Clear,300,2013-03-30 08:53:00
3:53 AM,44.1,35.1,71,29.96,10.0,NW,13.8,-,N/A,,Clear,320,2013-03-30 09:53:00
4:53 AM,42.1,35.1,76,29.99,10.0,NNW,11.5,-,N/A,,Clear,340,2013-03-30 10:53:00
5:53 AM,41.0,35.1,79,30.01,10.0,NNW,9.2,-,N/A,,Clear,340,2013-03-30 11:53:00
6:53 AM,41.0,34.0,76,30.05,10.0,NW,9.2,-,N/A,,Clear,320,2013-03-30 12:53:00
7:53 AM,44.1,34.0,68,30.07,10.0,NW,12.7,-,N/A,,Clear,320,2013-03-30 13:53:00
8:53 AM,51.1,36.0,56,30.07,10.0,NNW,13.8,-,N/A,,Clear,340,2013-03-30 14:53:00
9:53 AM,57.0,34.0,42,30.07,10.0,North,12.7,-,N/A,,Clear,350,2013-03-30 15:53:00
10:53 AM,60.1,34.0,38,30.06,10.0,North,8.1,-,N/A,,Clear,360,2013-03-30 16:53:00
11:53 AM,62.1,33.1,34,30.04,10.0,ENE,8.1,-,N/A,,Clear,60,2013-03-30 17:53:00
12:53 PM,62.1,33.1,34,30.03,10.0,Variable,6.9,-,N/A,,Clear,0,2013-03-30 18:53:00
1:53 PM,64.0,34.0,33,30.01,10.0,North,9.2,-,N/A,,Scattered Clouds,350,2013-03-30 19:53:00
2:53 PM,66.9,35.1,31,29.97,10.0,North,9.2,17.3,N/A,,Mostly Cloudy,10,2013-03-30 20:53:00
3:53 PM,61.0,35.1,38,29.99,10.0,North,13.8,-,0.00,Rain,Light Rain,350,2013-03-30 21:53:00
4:53 PM,55.9,39.9,55,30.03,10.0,NNW,9.2,-,0.00,,Overcast,340,2013-03-30 22:53:00
5:53 PM,52.0,45.0,77,30.05,10.0,NNW,8.1,-,0.02,,Overcast,340,2013-03-30 23:53:00
6:53 PM,50.0,44.1,80,30.07,10.0,North,6.9,-,N/A,,Scattered Clouds,360,2013-03-31 00:53:00
7:53 PM,48.0,43.0,83,30.09,10.0,WNW,4.6,-,0.00,,Partly Cloudy,300,2013-03-31 01:53:00
8:22 PM,46.4,39.2,76,30.11,10.0,North,11.5,-,0.01,,Overcast,360,2013-03-31 02:22:00
8:53 PM,44.1,39.0,82,30.14,10.0,North,6.9,-,0.01,,Scattered Clouds,360,2013-03-31 02:53:00
9:53 PM,42.1,37.0,82,30.15,10.0,NNW,8.1,-,N/A,,Clear,330,2013-03-31 03:53:00
10:53 PM,41.0,36.0,82,30.14,10.0,NW,8.1,-,N/A,,Clear,310,2013-03-31 04:53:00
11:53 PM,39.0,35.1,86,30.14,10.0,WNW,8.1,-,N/A,,Clear,300,2013-03-31 05:53:00